Location: Milton
(43.5183°N, 79.8775°W)
Time: 13:08:40
(UTC+00:00)

ESTCUBE 1 - Pass Details

Date: 02 April 2023
Orbit: 640 x 654 km, 97.9° (Epoch: 29 May)

Event Time Altitude Azimuth Distance (km) Brightness Sun altitude
Exits shadow 03:25:36 23° 341° (NNW) 1,404 ? -34.9°
Drops below altitude 10° 03:27:19 10° 344° (NNW) 2,075 ? -35.1°
Sets 03:29:33 0° 346° (NNW) 2,991 ? -35.3°
